Weather past 2 weeks in Saipan, Northern Mariana Islands

Now
82 °F

Passing clouds.


Feels Like: 92 °F
Forecast: 77 / 84 °F
Wind: 15 mph from South

Location: Saipan International Airport

Current Time: Jul 7, 2015 at 12:32:41 AM

Latest Report: Jul 7, 2015 at 12:01 AM


Visibility: 10 mi

Pressure: 29.75 "Hg

Humidity: 89%

Dew point: 79 °F

Location of SaipanLocation

Historic Weather in Saipan — Graph

°F

Saipan temperature yesterday

Maximum temperature yesterday: 87 °F (at 1:54 PM)
Minimum temperature yesterday: 81 °F (at 12:04 AM)
Average temperature yesterday: 83 °F

Past Weeks' High & Low Weather Summary

 TemperatureHumidityPressure
High89 °F (Jun 23, 12:54 PM)100% (Jul 4, 4:54 PM)30.00 "Hg (Jul 4, 4:54 PM)
Low77 °F (Jun 24, 3:54 AM)63% (Jun 26, 1:54 PM)29.37 "Hg (Jul 5, 4:47 PM)
Average83 °F82%29.81 "Hg
* Reported Jun 21 10:54 PM — Jul 6 10:54 PM, Saipan, Weather by CustomWeather, © 2015

Note: Actual official high and low records may vary slightly from our data, if they occured in-between our weather recording intervals... More about our weather records

Advertising

Saipan weather history for previous 24 hours

 ConditionsComfort  
Time TempWeatherWind HumidityBarometerVisibility
10:54 PM
Mon, Jul 6
82 °FPassing clouds.15 mph91%29.82 "Hg10 mi
9:54 PM82 °FPassing clouds.14 mph91%29.80 "Hg10 mi
8:54 PM83 °FPassing clouds.15 mph88%29.80 "Hg10 mi
7:54 PM83 °FPassing clouds.17 mph88%29.79 "Hg10 mi
6:54 PM83 °FPassing clouds.16 mph88%29.77 "Hg10 mi
6:36 PM82 °FScattered clouds.14 mph89%29.69 "Hg10 mi
5:54 PM84 °FBroken clouds.12 mph85%29.74 "Hg10 mi
5:01 PM84 °FBroken clouds.20 mph84%29.67 "Hg10 mi
3:54 PM86 °FPassing clouds.13 mph77%29.70 "Hg10 mi
3:34 PM86 °FPartly sunny.12 mph79%29.64 "Hg10 mi
2:54 PM86 °FPassing clouds.13 mph77%29.70 "Hg10 mi
1:54 PM87 °FScattered clouds.16 mph72%29.70 "Hg10 mi
12:54 PM86 °FScattered clouds.17 mph77%29.70 "Hg10 mi
11:54 AM86 °FScattered clouds.13 mph80%29.70 "Hg10 mi
10:54 AM86 °FScattered clouds.20 mph83%29.70 "Hg10 mi
9:54 AM85 °FScattered clouds.16 mph80%29.69 "Hg10 mi
8:54 AM84 °FScattered clouds.18 mph83%29.69 "Hg10 mi
7:54 AM82 °FScattered clouds.18 mph88%29.67 "Hg10 mi
6:54 AM81 °FPassing clouds.21 mph88%29.65 "Hg10 mi
5:54 AM81 °FPassing clouds.24 mph91%29.63 "Hg10 mi
4:54 AM81 °FClear.22 mph88%29.59 "Hg10 mi
4:20 AM81 °FPassing clouds.24 mph94%29.53 "Hg10 mi
4:01 AM81 °FPassing clouds.22 mph94%29.53 "Hg10 mi
2:54 AM81 °FRain. Partly cloudy.24 mph91%29.56 "Hg7 mi
1:54 AM81 °FPartly cloudy.28 mph91%29.54 "Hg10 mi
12:54 AM81 °FPartly cloudy.29 mph91%29.52 "Hg10 mi
12:04 AM81 °FFog.28 mph94%29.47 "Hg6 mi
Weather by CustomWeather, © 2015

See weather overviewHow to use our weather pages